sat.trackr.live / text

‹ back to catalog

STARLINK-3976

NORAD 52673 · 2022-053T

PAYLOAD ACTIVE UNKNOWN

§ Identity

Operator
Country
US
Launch date
2022-05-18
Launch site
AFETR
Launch vehicle
Mass (kg)
RCS (m²)

Purposes: comms

External: N2YO · Heavens-Above · Gunter

§ Orbital elements

Epoch: 2026-05-25T01:50:58.384896Z

Period
95.44 min
Inclination
53.2140°
Eccentricity
0.0001195
Mean motion
15.08842031 rev/d
Perigee alt
538.9 km
Apogee alt
540.6 km
Semi-major
6,917.9 km
B*
3.8038e-5
RAAN
171.2029°
Arg perigee
80.0159°
Mean anomaly
280.0968°
Rev number
22,257

§ Raw data

STARLINK-39761 52673U 22053T   26145.07706464  .00000318  00000+0  38038-4 0  99942 52673  53.2140 171.2029 0001195  80.0159 280.0968 15.08842031222574

JSON: /api/v1/satellites/52673 · /tle

For live sub-satellite position, see the globe view (requires WebGL).

§ Visibility from observer

Set your observer location to see the next 7 days of passes ≥ 10°. The values pass through the URL so the page stays shareable.

No JS? Fill the form by hand. The geolocation button needs JavaScript.